CTFK1: Cottonwood Rv Cotwd Falls

                                SHEF ID:       CTFK1     Cottonwood Rv Cotwd Falls
STATION TYPE:

PRECIP STAGE RIV-FLOW BAT-LOAD
in ft cfs volt
Ccp-Rev Ccp-Rev Ccp-Rev Ccp-Rev
(America/Chicago)
11/25 00:00 0.00 11.44 838 12.28
11/25 01:00 0.00 11.42 834 12.28
11/25 02:00 0.00 11.41 831 12.28
11/25 03:00 0.01 11.39 826 12.27
11/25 04:00 0.00 11.37 822 12.27
11/25 05:00 0.00 11.35 817 12.27
11/25 06:00 0.00 11.33 812 12.27
11/25 07:00 0.00 11.31 807 12.27
11/25 08:00 0.00 11.29 802 12.27
11/25 09:00 0.00 11.28 800 12.31
11/25 10:00 0.00 11.26 795 12.36
11/25 11:00 0.00 11.23 788 12.44
11/25 12:00 0.00 11.21 783 12.65
11/25 13:00 0.00 11.19 779 13.64
11/25 14:00 0.00 11.17 774 13.78
11/25 15:00 0.00 11.15 769 13.65
11/25 16:00 0.00 11.13 764 13.49
11/25 17:00 0.00 11.11 760 13.40
11/25 18:00 0.00 11.08 753 12.93
11/25 19:00 0.00 11.06 748 12.62
11/25 20:00 0.00 11.04 744 12.52
11/25 21:00 0.00 11.02 739 12.46
11/25 22:00 0.00 11.00 734 12.44
11/25 23:00 0.00 10.98 730 12.42
Data processed at Wed 26Nov2025 05:06 GMT

NOTICE: If you are parsing this page

Please convert to using our Data API. Starting January 1st, 2026 we will be migrating to: https://water.usace.army.mil with modern pages rendered in JavaScript. You will no longer be able to scrape this page! CWMSDataAPI (CDA)

Timeseries IDs (TSIDs)

TSIDs used from left to right in the data table
COTF.Precip-Inc.Total.1Hour.1Hour.Ccp-Rev
COTF.Stage.Inst.1Hour.0.Ccp-Rev
COTF.Flow.Inst.1Hour.0.Ccp-Rev
COTF.Volt-Battery Load.Inst.1Hour.0.Ccp-Rev

                            

All information presented herein is the property of the government of the United States of America and may be revised or deleted at any time without prior notice. Dissemination of this information without the expressed written consent of the Public Affairs Office, Tulsa District U.S. Army Corps of Engineers is strictly prohibited. These data are gathered electronically and, as presented, have NOT undergone any form of quality control. These data are NOT guaranteed to be valid or correct.